This is the latest recevied weather packets stored in our database for station/object NQ9F. If no packets are shown the sender has not sent any weather packets the latest 10 day(s).
| Time | Temp. | Humidity | Pressure | Rain* | Wind** | Luminosity | Snow |
|---|---|---|---|---|---|---|---|
| 1777686561 | 15.56° C | 78% | 1018.3 hPa | 0 mm | - | 0 W/m² | - |
| 1777686259 | 15.56° C | 78% | 1017.9 hPa | 0 mm | - | 0 W/m² | - |
| 1777685954 | 15.56° C | 80% | 1017.9 hPa | 0 mm | - | 0 W/m² | - |
| 1777685650 | 15.56° C | 80% | 1018 hPa | 0 mm | - | 0 W/m² | - |
| 1777685347 | 16.11° C | 79% | 1017.6 hPa | 0 mm | - | 0 W/m² | - |
| 1777685045 | 15.56° C | 78% | 1017.7 hPa | 0 mm | - | 0 W/m² | - |
| 1777684742 | 15.56° C | 82% | 1017.8 hPa | 0 mm | - | 1 W/m² | - |
| 1777684438 | 15.56° C | 83% | 1017.5 hPa | 0 mm | - | 1 W/m² | - |
| 1777684135 | 16.11° C | 80% | 1017.6 hPa | 0 mm | - | 3 W/m² | - |
| 1777683832 | 16.11° C | 81% | 1017.4 hPa | 0 mm | - | 4 W/m² | - |
| 1777683529 | 16.11° C | 79% | 1017.2 hPa | 0 mm | - | 6 W/m² | - |
| 1777683227 | 16.11° C | 78% | 1017.1 hPa | 0 mm | - | 8 W/m² | - |
| 1777682924 | 16.11° C | 77% | 1016.8 hPa | 0 mm | - | 10 W/m² | - |
| 1777682620 | 16.11° C | 76% | 1016.9 hPa | 0 mm | - | 11 W/m² | - |
| 1777682318 | 16.11° C | 77% | 1016.8 hPa | 0 mm | - | 14 W/m² | - |
| 1777682014 | 16.11° C | 76% | 1016.6 hPa | 0 mm | - | 17 W/m² | - |
| 1777681711 | 16.11° C | 75% | 1016.8 hPa | 0 mm | - | 20 W/m² | - |
| 1777681408 | 16.11° C | 76% | 1016.5 hPa | 0 mm | - | 24 W/m² | - |
| 1777681105 | 16.67° C | 75% | 1016.7 hPa | 0 mm | - | 32 W/m² | - |
| 1777680803 | 16.67° C | 75% | 1016.6 hPa | 0 mm | - | 47 W/m² | - |
| 1777680500 | 16.67° C | 75% | 1016.4 hPa | 0 mm | - | 65 W/m² | - |
| 1777680198 | 16.67° C | 73% | 1016.4 hPa | 0 mm | - | 73 W/m² | - |
| 1777679894 | 16.67° C | 73% | 1016.2 hPa | 0 mm | - | 77 W/m² | - |
| 1777679590 | 16.67° C | 72% | 1016.2 hPa | 0 mm | - | 72 W/m² | - |
| 1777679285 | 16.67° C | 72% | 1016.1 hPa | 0 mm | - | 72 W/m² | - |
* Rain latest hour (hover to see other rain measurements)
** Current wind speed in m/s (hover to see current wind gust speed)